[[{"header":{"parameterUnit":"m.s-1","parameterCategory":1,"la1":30.2991,"la2":30.254,"lo1":-89.0895,"lo2":-89.0444,"dy":0.0017,"dx":0.0017,"nx":28,"ny":28,"refTime":"2025-07-23T09:00:00:Z","depth":0,"parameterNumber":2,"parameterNumberName":"U-component_of_WINDS"},"data":[0,0,0,0,0,0,0,0,0,0,0,0,0,0,0,0,0,0,0,0,0,0,0,0,0,0,0,0,0,0,0,0,0,0,0,0,0,0,0,0,0,0,0,0,0,0,0,0,0,0,0,0,0,0,0,0,0,0,1.3828,1.3828,0,1.3896,1.3896,1.3897,1.3885,1.3884,1.3882,1.3881,1.3948,1.3951,1.3954,0,0,0,0,0,0,0,0,0,0,0,0,0,1.3685,1.3688,1.3827,1.3828,1.3829,1.3895,1.3896,1.3897,1.3885,1.3884,1.3882,1.3881,1.3947,1.3951,1.3954,0,0,0,0,0,0,0,0,0,0,0,0,0,1.3749,1.3689,1.3827,1.3831,1.3832,1.3895,1.3896,1.3897,1.3885,1.3884,1.3882,1.388,1.3946,1.395,1.3954,1.4017,0,0,1.3968,1.397,0,0,0,0,0,0,0,0,1.3746,1.3755,1.383,1.3831,1.3832,1.388,1.3871,1.3937,1.3886,1.3865,1.3881,1.3879,1.3927,1.3932,1.3949,1.402,1.4023,1.3968,1.3971,1.3973,1.3974,0,0,0,0,0,0,0,1.3741,1.3752,1.3854,1.3831,1.3832,1.3829,1.3836,1.3883,1.3905,1.3867,1.3866,1.3874,1.3927,1.3945,1.3951,1.4024,1.3968,1.3972,1.3975,1.3976,1.4151,1.4152,0,0,0,0,0,0,1.3736,1.3748,1.3852,1.3856,1.3784,1.3833,1.3841,1.3866,1.3904,1.3909,1.3876,1.3874,1.3938,1.3945,1.3953,1.4029,1.3973,1.3977,1.3979,1.4149,1.4151,1.4153,0,0,0,0,0,0,1.3733,1.3745,1.3849,1.3802,1.3815,1.3837,1.3866,1.3869,1.3887,1.3911,1.3915,1.389,1.3937,1.3947,1.4002,1.4031,1.3979,1.3983,1.4146,1.4149,1.4152,1.4182,0,0,0,0,0,0,1.3729,1.3744,1.3769,1.3803,1.3818,1.3898,1.3868,1.3871,1.3894,1.3892,1.3926,1.393,1.3937,1.3995,1.4006,1.4036,1.3986,1.4144,1.4148,1.4151,1.4178,1.4185,1.4191,0,0,0,0,0,1.3724,1.3774,1.377,1.3783,1.3849,1.3899,1.3908,1.3915,1.3897,1.3921,1.3937,1.3929,1.4026,1.4001,1.4013,1.4045,1.4142,1.4146,1.4151,1.4175,1.4184,1.4191,0,0,0,0,0,0,1.3741,1.3778,1.3775,1.3837,1.3865,1.3897,1.3928,1.3924,1.3958,1.3954,1.3961,1.3969,1.4025,1.404,1.4011,1.4108,1.4081,1.4088,1.4096,1.4104,1.4111,1.4106,1.399,0,0,0,0,0,1.3753,1.3792,1.3821,1.3873,1.3888,1.3906,1.3928,1.3932,1.3961,1.3973,1.3993,1.4021,1.4058,1.4082,1.4117,1.418,1.4188,1.4208,1.4215,1.422,1.4226,1.4261,1.4271,1.4168,1.4168,1.4168,0,0,1.3776,1.3801,1.3825,1.3877,1.39,1.3939,1.3916,1.3958,1.3988,1.3979,1.4032,1.4048,1.408,1.4139,1.4166,1.4154,1.4257,1.4226,1.423,1.4233,1.4267,1.4277,1.4285,1.4171,1.4171,1.417,0,0,1.3839,1.3861,1.3908,1.3931,1.3966,1.3978,1.3989,1.4022,1.4032,1.4086,1.4081,1.4115,1.4179,1.4202,1.4222,1.4295,1.4288,1.4306,1.4341,1.4375,1.4383,1.439,1.4416,1.4425,1.4312,1.4312,1.4312,0,1.3863,1.3923,1.3932,1.3975,1.3999,1.3994,1.4041,1.4062,1.4106,1.4122,1.4108,1.4189,1.4209,1.4275,1.4293,1.4309,1.4322,1.4302,1.4381,1.4388,1.4395,1.442,1.443,1.4314,1.4314,1.4314,1.4313,0,1.3951,1.3993,1.4026,1.407,1.4097,1.4142,1.4157,1.4183,1.4185,1.4198,1.4253,1.4279,1.4319,1.4335,1.4337,1.4401,1.4392,1.4379,1.4353,1.4407,1.443,1.444,1.4317,1.4316,1.4315,1.4315,0,0,1.4026,1.4075,1.4087,1.4107,1.4146,1.4178,1.4223,1.4264,1.4286,1.4317,1.4355,1.4409,1.4398,1.4421,1.4425,1.4455,1.4511,1.4439,1.444,1.4451,1.4584,1.4593,1.4604,1.4508,1.4509,1.4511,1.4581,0,1.4092,1.4172,1.4182,1.4252,1.4291,1.4288,1.4327,1.4354,1.4368,1.4402,1.4417,1.4456,1.4438,1.4452,1.4482,1.4498,1.4538,1.4493,1.4542,1.4544,1.4534,1.4616,1.4626,1.4691,1.459,1.4592,1.4593,0,1.418,1.4215,1.429,1.4324,1.434,1.4375,1.4414,1.4447,1.4478,1.4486,1.4513,1.4513,1.4559,1.4531,1.4594,1.4564,1.4584,1.4596,1.4598,1.4603,1.4571,1.4623,1.4712,1.4722,1.4608,1.4607,1.4606,0,1.4227,1.4292,1.4346,1.4363,1.4404,1.4429,1.4447,1.4477,1.4501,1.4535,1.455,1.4589,1.4609,1.4639,1.465,1.4629,1.4712,1.4685,1.472,1.472,1.4737,1.4736,1.4831,1.4751,1.4751,1.4751,1.475,0,1.43,1.4346,1.4368,1.4401,1.4452,1.4463,1.4513,1.453,1.4557,1.4592,1.4591,1.4625,1.4637,1.4673,1.4681,1.4732,1.4742,1.4749,1.4751,1.4749,1.4748,1.4762,1.4758,1.4753,1.4753,1.4752,1.4752,0,1.4361,1.4377,1.4435,1.447,1.448,1.4516,1.4545,1.4577,1.4591,1.4636,1.4647,1.4669,1.4711,1.4725,1.4775,1.4781,1.484,1.4838,1.483,1.483,1.4864,1.4861,1.4971,1.4986,1.4896,1.4897,1.4898,0,1.4406,1.4441,1.448,1.4505,1.4524,1.4563,1.4589,1.46,1.4626,1.4666,1.4692,1.4734,1.4768,1.4835,1.4855,1.4893,1.4892,1.4928,1.4897,1.4895,1.4892,1.489,1.4894,1.4933,1.4934,1.4935,1.4936,0,1.4485,1.4491,1.4528,1.4568,1.4599,1.4631,1.4661,1.4681,1.4698,1.4727,1.477,1.4797,1.4849,1.489,1.493,1.4948,1.4945,1.4945,1.4955,1.4954,1.4948,1.4952,1.4845,1.4943,1.4942,1.4941,1.4941,1.4941,1.4539,1.4571,1.4603,1.4645,1.4669,1.4698,1.473,1.4749,1.4785,1.4829,1.4834,1.488,1.4911,1.4964,1.4984,1.5021,1.5011,1.5025,1.5029,1.5032,1.5035,1.4942,1.5028,1.5028,1.5028,1.5028,1.5027,0,1.4618,1.4639,1.4677,1.4721,1.4753,1.4748,1.4782,1.481,1.4851,1.4881,1.4915,1.4965,1.5005,1.5029,1.5069,1.5094,1.5093,1.5104,1.5102,1.5106,1.5041,1.5029,1.5104,1.5104,1.5104,1.5104,1.5104,1.5104,1.4662,1.4716,1.4727,1.4793,1.4813,1.486,1.488,1.4906,1.493,1.4987,1.5021,1.5036,1.5063,1.5106,1.5143,1.5148,1.5163,1.5175,1.518,1.5119,1.5111,1.5103,1.5091,1.5178,1.5178,1.5242,1.5242,1.5243]},{"header":{"parameterUnit":"m.s-1","parameterCategory":1,"la1":30.2991,"la2":30.254,"lo1":-89.0895,"lo2":-89.0444,"dy":0.0017,"dx":0.0017,"nx":28,"ny":28,"refTime":"2025-07-23T09:00:00:Z","depth":0,"parameterNumber":3,"parameterNumberName":"V-component_of_WINDS"},"data":[0,0,0,0,0,0,0,0,0,0,0,0,0,0,0,0,0,0,0,0,0,0,0,0,0,0,0,0,0,0,0,0,0,0,0,0,0,0,0,0,0,0,0,0,0,0,0,0,0,0,0,0,0,0,0,0,0,0,0.0393,0.0392,0,0.025,0.0248,0.0246,0.0156,0.0156,0.0156,0.0155,0.0006,0.0003,-0.0001,0,0,0,0,0,0,0,0,0,0,0,0,0,0.0588,0.0585,0.0393,0.0392,0.039,0.025,0.0248,0.0246,0.0157,0.0156,0.0155,0.0155,0.0007,0.0003,-0.0001,0,0,0,0,0,0,0,0,0,0,0,0,0,0.048,0.0584,0.0394,0.0328,0.0321,0.025,0.0248,0.0245,0.0157,0.0156,0.0155,0.0155,0.0009,0.0004,-0.0002,-0.0019,0,0,-0.0018,-0.002,0,0,0,0,0,0,0,0,0.0487,0.0473,0.034,0.0333,0.0324,0.022,0.0262,0.0157,0.0157,0.0219,0.0155,0.0154,0.0078,0.0067,0.0042,-0.0026,-0.0033,-0.0018,-0.0021,-0.0024,-0.0025,0,0,0,0,0,0,0,0.0494,0.0479,0.0336,0.0338,0.0329,0.0306,0.0289,0.0242,0.0154,0.0214,0.0207,0.0191,0.0074,0.0047,0.0037,-0.0035,-0.0018,-0.0023,-0.0026,-0.0028,-0.0124,-0.0124,0,0,0,0,0,0,0.0512,0.0486,0.0341,0.0332,0.0405,0.0303,0.0285,0.0254,0.0155,0.0139,0.0192,0.0187,0.0056,0.0044,0.0032,0.0005,-0.0023,-0.0028,-0.0031,-0.0125,-0.0124,-0.0124,0,0,0,0,0,0,0.0517,0.05,0.0347,0.0407,0.0386,0.03,0.0267,0.0252,0.0225,0.0138,0.0122,0.0181,0.0055,0.0039,-0.0006,-0.0002,-0.0031,-0.0036,-0.0126,-0.0125,-0.0124,-0.0049,0,0,0,0,0,0,0.0523,0.0502,0.0495,0.0408,0.0383,0.0313,0.0267,0.025,0.0217,0.0209,0.0123,0.0108,0.0053,0.0003,-0.0011,-0.0009,-0.004,-0.0126,-0.0125,-0.0124,-0.0052,-0.0046,-0.004,0,0,0,0,0,0.053,0.0522,0.0495,0.0478,0.0372,0.0313,0.0299,0.0236,0.0217,0.0209,0.0153,0.0111,0.0,-0.0001,-0.0017,-0.0017,-0.0127,-0.0126,-0.0124,-0.0055,-0.0047,-0.004,0,0,0,0,0,0,0.0611,0.0509,0.0479,0.0442,0.0387,0.0298,0.0286,0.0246,0.0195,0.0191,0.0114,0.0095,0.0058,0.0015,0.0016,-0.004,-0.0068,-0.007,-0.001,-0.0003,0.0003,0.0014,-0.0044,0,0,0,0,0,0.0625,0.0586,0.0498,0.0474,0.0448,0.0372,0.0344,0.03,0.024,0.0216,0.0157,0.01,0.0051,0.0021,-0.0028,-0.0059,-0.0079,-0.0067,-0.0061,-0.0056,-0.0056,-0.0076,-0.0071,-0.0119,-0.0119,-0.0119,0,0,0.0653,0.0592,0.0572,0.0489,0.0441,0.0402,0.0353,0.0314,0.0284,0.021,0.0164,0.0119,0.0049,0.0011,-0.0008,-0.0025,-0.0047,-0.0054,-0.0049,-0.0053,-0.0074,-0.0069,-0.0065,-0.0118,-0.0118,-0.0119,0,0,0.0684,0.0634,0.0609,0.0562,0.0491,0.044,0.0434,0.0351,0.0318,0.0271,0.0215,0.0178,0.0097,0.005,0.0016,0.0029,-0.0012,0.0015,0.0047,0.0028,0.0032,0.0035,0.004,0.0043,0.0014,0.0015,0.0015,0,0.0728,0.0667,0.06,0.0564,0.053,0.0461,0.0435,0.0392,0.0309,0.0286,0.0268,0.0166,0.0114,0.0064,0.0068,0.0042,0.0032,0.0025,0.0037,0.0039,0.0041,0.0045,0.0047,0.0018,0.0018,0.0018,0.0017,0,0.0724,0.0683,0.0671,0.0593,0.0556,0.0525,0.0453,0.0424,0.0384,0.0335,0.0288,0.0224,0.0161,0.0145,0.0105,0.009,0.0082,0.0052,0.0021,0.0051,0.0053,0.0054,0.0024,0.0022,0.0021,0.002,0,0,0.0803,0.0688,0.0685,0.0649,0.0565,0.0532,0.0497,0.0436,0.0413,0.0357,0.0326,0.0259,0.0231,0.0192,0.0146,0.013,0.0145,0.0101,0.0099,0.0112,0.0124,0.0148,0.0151,0.0117,0.0117,0.0117,0.013,0,0.0822,0.0758,0.0697,0.0654,0.0616,0.055,0.052,0.0465,0.0419,0.0378,0.0326,0.028,0.0246,0.0222,0.0203,0.0147,0.0146,0.0145,0.0088,0.0087,0.0108,0.0152,0.0177,0.0192,0.0131,0.0131,0.0131,0,0.0836,0.0784,0.0738,0.0658,0.064,0.0614,0.0553,0.0515,0.0452,0.0419,0.0376,0.0327,0.0287,0.0261,0.0204,0.0205,0.0178,0.0147,0.0146,0.0138,0.0111,0.0147,0.0195,0.0198,0.0132,0.0132,0.0131,0,0.0899,0.0817,0.0779,0.075,0.0656,0.0639,0.0599,0.0535,0.0502,0.0448,0.0426,0.0369,0.0338,0.0294,0.0231,0.0217,0.0181,0.0149,0.0153,0.0154,0.0149,0.015,0.0195,0.013,0.013,0.013,0.013,0,0.0927,0.0901,0.0806,0.0783,0.0753,0.0682,0.0654,0.0608,0.0551,0.0517,0.0456,0.0426,0.0344,0.0303,0.0253,0.0215,0.0201,0.0173,0.016,0.0179,0.0182,0.016,0.0158,0.013,0.013,0.013,0.013,0,0.0992,0.0927,0.0882,0.0797,0.0775,0.0756,0.0682,0.0657,0.0607,0.0565,0.0551,0.0472,0.0421,0.0354,0.0281,0.0248,0.0216,0.0195,0.0238,0.023,0.0237,0.0238,0.027,0.0271,0.0206,0.0207,0.0207,0,0.1015,0.0994,0.0907,0.088,0.0842,0.08,0.0766,0.0696,0.0664,0.0589,0.0573,0.0518,0.047,0.0392,0.0327,0.0272,0.025,0.0265,0.0241,0.0261,0.0251,0.0253,0.0251,0.0271,0.0272,0.0273,0.0274,0,0.1062,0.1031,0.0986,0.0929,0.0891,0.0843,0.0792,0.0773,0.0692,0.0658,0.0606,0.0569,0.0496,0.0442,0.0378,0.0335,0.0291,0.0282,0.0279,0.0299,0.0325,0.0311,0.0255,0.0281,0.0281,0.028,0.028,0.0279,0.1107,0.1086,0.1021,0.0972,0.0927,0.088,0.0853,0.0799,0.0755,0.069,0.0651,0.0601,0.0536,0.0446,0.0406,0.0365,0.0347,0.0344,0.0343,0.0344,0.0351,0.0331,0.0352,0.0352,0.0352,0.0352,0.0351,0,0.1152,0.1107,0.1063,0.0994,0.0956,0.0918,0.0859,0.083,0.0786,0.0731,0.0685,0.0625,0.0572,0.0504,0.0446,0.0426,0.0405,0.0413,0.0415,0.0406,0.0369,0.0377,0.0432,0.0432,0.0432,0.0432,0.0432,0.0432,0.1171,0.1133,0.1094,0.1033,0.0987,0.0938,0.0908,0.0865,0.082,0.0757,0.0713,0.0669,0.0608,0.0545,0.0495,0.0476,0.0457,0.0473,0.0448,0.0415,0.0408,0.0401,0.0408,0.0469,0.0469,0.0488,0.0488,0.0488]}]]